Location: Gorze? G�rny
(49.8500°N, 19.5000°E)
Time: 11:02:14
(UTC+00:00)

DNEPR-1 R/B - Pass Details

Date: 13 May 2021
Orbit: 587 x 1334 km, 64.6° (Epoch: 22 June)

Event Time Altitude Azimuth Distance (km) Brightness Sun altitude
Exits shadow 21:28:40 16° 219° (SW) 2,137 6.0 -19.8°
Maximum altitude 21:33:24 90° 154° (SSE) 784 4.0 -20.0°
Drops below altitude 10° 21:38:17 10° 41° (NE) 2,147 6.8 -20.3°
Sets 21:40:26 0° 41° (NE) 2,993 7.6 -20.3°
